Location: Grand Chardavon
(44.3441°N, 6.3258°E)
Time: 01:23:53
(UTC+00:00)

Daily predictions for brighter satellites

Satellite Brightness Start Highest point End
(mag) Time Altitude Azimuth Time Altitude Azimuth Time Altitude Azimuth
ATLAS CENTAUR R/B 4.5 00:03:44 10° N 00:05:05 13° NE 00:06:50 10° ENE
GEOS 3 Rocket 3.8 00:07:38 33° ESE 00:09:58 70° NE 00:15:14 10° NNW
Cosmos 1726 3.5 00:08:24 10° NNW 00:10:54 30° WNW 00:10:54 30° WNW
COSMOS 2455 2.8 00:11:39 54° S 00:12:55 70° ESE 00:18:55 10° NE
Cosmos 2058 Rocket 3.7 00:08:48 10° N 00:13:04 46° ENE 00:13:46 42° ESE
Meteor 1-29 3.9 00:10:58 10° NNE 00:13:32 46° NE 00:13:32 46° NE
Cosmos 2228 2.9 00:11:21 10° N 00:15:32 84° NW 00:15:32 84° NW
SJ 16-02 4.3 00:14:49 10° NNE 00:16:12 11° NE 00:17:34 10° ENE
SL-14 R/B 4.1 00:18:39 42° E 00:18:39 42° E 00:22:09 10° NNE
Meteor 2-15 Rocket 4.4 00:13:16 10° NNW 00:19:24 69° W 00:20:55 50° SSW
IRAS Rocket 4.4 00:17:53 40° SE 00:19:54 68° ENE 00:25:27 10° N
Cosmos 1953 3.9 00:16:41 10° NNW 00:19:26 26° WNW 00:19:26 26° WNW
Cosmos 1340 Rocket 3.9 00:18:03 10° NNW 00:21:08 34° WNW 00:21:08 34° WNW
Okean 1-7 Rocket 3.7 00:22:03 59° ESE 00:22:23 61° E 00:26:49 10° NNE
Cosmos 1174 4.4 00:23:33 42° NE 00:23:33 42° NE 00:26:05 10° NE
Cosmos 921 Rocket 4.0 00:23:34 33° ESE 00:23:43 33° E 00:27:34 10° NE
Cosmos 1300 3.6 00:21:11 10° N 00:24:49 40° ENE 00:25:04 40° E
BREEZE M DEB (TANK) 4.3 00:26:49 21° NE 00:26:49 21° NE 00:28:24 10° ENE
COSMOS 2487 3.5 00:24:57 10° NNW 00:27:18 39° NW 00:27:18 39° NW
Cosmos 1833 4.5 00:23:55 10° NW 00:29:17 47° WSW 00:29:45 46° WSW
Cosmos 1626 2.3 00:34:31 65° ENE 00:34:31 65° ENE 00:37:56 10° NNE
STARLINK-60 4.3 00:36:27 36° NE 00:36:27 36° NE 00:38:30 10° NE
Cosmos 1656 Rocket 4.4 00:33:51 33° WSW 00:35:51 46° WNW 00:41:14 10° NNE
Cosmos 1606 Rocket 4.0 00:34:49 10° NNW 00:38:48 45° W 00:38:48 45° W
FALCON 9 R/B 3.3 00:38:25 39° SSW 00:40:09 45° SSE 00:57:26 10° E
Nadezhda 1 Rocket 4.4 00:36:24 10° N 00:42:27 57° ENE 00:45:52 26° SSE
MOZ.5/SAFIR/RUBIN 5/SL-8 4.2 00:44:15 36° SE 00:45:55 57° ENE 00:50:28 10° N
Meteor 2-21 4.5 00:45:34 45° SSW 00:47:32 71° W 00:53:43 10° N
Cosmos 2297 Rocket 3.8 00:43:47 10° N 00:48:52 33° NE 00:53:55 10° ESE
SL-4 R/B 2.3 00:49:12 54° WSW 00:50:19 86° NNW 00:55:06 10° ENE
Cosmos 1437 3.6 00:52:48 44° NE 00:52:48 44° NE 00:55:04 10° NNE
Cosmos 1674 4.3 00:53:21 23° WNW 00:53:21 23° WNW 00:56:19 10° NNW
ATLAS CENTAUR R/B 1.8 00:56:56 49° W 00:57:44 58° NW 01:01:52 10° NNE
SL-19 R/B 4.2 00:52:51 10° N 00:58:13 72° WNW 01:00:03 43° SW
SL-16 R/B 2.7 00:56:01 23° SSE 00:59:58 70° ENE 01:06:06 10° N
Cosmos 1777 Rocket 4.0 00:55:26 10° NNW 01:00:38 66° WSW 01:01:54 48° SSW
NOSS 3-4 (A) 4.1 00:57:31 25° WSW 01:00:46 48° NW 01:06:57 10° NNE
NOSS 3-4 (C) 4.1 00:57:38 25° WSW 01:00:52 48° NW 01:07:04 10° NNE
Timation 2 Rocket 3.9 00:54:36 10° NNW 01:00:59 87° WSW 01:04:30 27° SSE
FALCON 9 DEB 4.1 01:02:08 39° E 01:02:08 39° E 01:04:42 10° ENE
BREEZE-M R/B 3.0 01:01:07 58° S 01:01:26 60° SSE 01:04:39 10° ENE
Spot 1 4.3 01:00:53 53° SW 01:01:31 58° W 01:06:16 10° NNW
Cosmos 1602 Rocket 4.0 01:01:58 41° SE 01:03:03 52° E 01:07:16 10° NNE
STARLINK-29 3.5 01:04:34 54° ENE 01:04:34 54° ENE 01:07:08 10° ENE
Cosmos 1455 4.1 01:04:00 10° NNE 01:07:10 25° ENE 01:09:23 15° ESE
ATLAS 3B R/B 2.6 01:01:24 10° NW 01:08:10 67° WSW 01:12:43 23° SSE
CENTAUR R/B 3.7 01:04:31 10° NW 01:11:57 38° WSW 01:14:47 31° SSW
BREEZE-M DEB (TANK) 2.2 01:12:38 42° NNW 01:12:40 42° NNW 01:14:52 10° NE
GP-B 4.5 01:09:34 10° NNE 01:13:37 33° E 01:16:10 19° SE
Meteor 2-1 Rocket 4.4 01:09:09 10° N 01:14:39 68° ENE 01:18:03 24° SSE
Cosmos 1745 Rocket 3.9 01:12:45 37° SSW 01:15:25 84° W 01:21:35 10° N
Cosmos 1867 4.1 01:11:27 10° NW 01:16:25 36° WSW 01:16:44 36° WSW
STARLINK-1390 4.5 01:19:27 29° ESE 01:19:27 29° ESE 01:22:14 10° ENE
RESURS DK-1 2.6 01:19:17 47° WSW 01:20:07 58° WNW 01:24:14 10° NNE
Meteor 1-24 Rocket 4.3 01:22:03 31° WSW 01:23:47 40° WNW 01:28:52 10° N
Cosmos 2227 Rocket 3.0 01:19:07 10° NNW 01:24:40 51° ENE 01:30:10 10° SE
Cosmos 1356 Rocket 3.4 01:20:47 10° NNW 01:24:54 68° W 01:25:49 51° SSW
Cosmos 1697 Rocket 4.2 01:23:11 16° SSE 01:26:36 28° ESE 01:31:21 10° NE
CZ-2D R/B 2.0 01:22:42 10° NNE 01:28:00 89° WNW 01:30:15 35° SSW
ATLAS 2AS CENTAUR R/B 4.0 01:23:17 14° WSW 01:29:51 41° NW 01:37:14 10° NNE
ADEOS II 3.1 01:25:43 10° NNE 01:30:38 39° E 01:34:07 18° SSE
IKONOS-2 4.4 01:29:56 43° S 01:31:14 71° WSW 01:35:31 10° NNW
CZ-4C R/B 3.7 01:30:46 45° SW 01:31:32 52° W 01:35:46 10° NNW
STARLINK-1228 2.8 01:32:28 10° WNW 01:35:49 79° SW 01:39:09 10° SE
STARLINK-1234 2.7 01:33:54 10° WNW 01:37:01 81° SW 01:37:02 81° SSW
Resurs 1-4 Rocket 2.1 01:32:28 10° N 01:37:45 72° WNW 01:40:11 33° SSW
STARLINK-1212 2.9 01:35:16 10° NW 01:38:23 76° NE 01:41:29 10° ESE
STARLINK-1105 2.9 01:35:44 10° NW 01:38:50 77° NNE 01:41:55 10° ESE
USA 81 4.0 01:36:20 31° S 01:38:55 87° W 01:44:14 10° N
STARLINK-1209 3.1 01:36:09 10° WNW 01:38:42 53° WNW 01:38:42 53° WNW
STARLINK-1247 2.9 01:36:38 10° NW 01:39:46 79° NNE 01:42:53 10° ESE
STARLINK-1227 2.9 01:37:06 10° NW 01:40:12 79° NNE 01:43:18 10° ESE
STARLINK-52 3.5 01:39:41 42° WNW 01:40:24 54° NNW 01:43:33 10° NE
STARLINK-1226 2.8 01:37:57 10° NW 01:41:04 81° NNE 01:44:11 10° ESE
Cosmos 1758 Rocket 3.8 01:39:23 30° SSE 01:41:24 64° E 01:45:44 10° NNE
STARLINK-1215 2.8 01:38:54 10° NW 01:42:01 82° NNE 01:45:08 10° ESE
ARIANE 5 R/B 4.0 01:38:15 10° NE 01:42:42 30° E 01:46:55 11° SSE
STARLINK-1217 2.8 01:40:39 10° NW 01:43:47 85° NNE 01:46:54 10° ESE
STARLINK-1229 2.8 01:41:35 10° NW 01:44:42 87° NNE 01:47:50 10° ESE
NPP 3.7 01:39:48 10° N 01:45:11 73° WNW 01:47:57 30° SSW
STARLINK-1270 2.8 01:42:26 10° NW 01:45:35 88° NE 01:48:42 10° SE
STARLINK-1189 2.7 01:44:17 10° WNW 01:47:25 89° SW 01:50:32 10° SE
STARLINK-1188 2.7 01:45:10 10° WNW 01:48:18 87° SW 01:51:25 10° SE
STARLINK-1235 2.7 01:45:52 10° WNW 01:48:57 66° SW 01:52:01 10° SE
STARLINK-1271 4.5 01:44:55 10° NW 01:48:59 51° NNE 01:53:01 10° ESE
STARLINK-1187 2.6 01:46:16 10° WNW 01:49:22 75° SW 01:52:28 10° SE
Meteor 1-21 Rocket 4.2 01:46:49 28° SSW 01:49:53 82° W 01:55:35 10° N
Cosmos 1898 Rocket 3.8 01:44:37 10° NNW 01:49:58 69° ENE 01:55:15 10° SSE
STARLINK-1191 2.7 01:47:39 10° WNW 01:50:45 83° SW 01:53:51 10° SE
Lacrosse 4 Rocket 3.9 01:47:45 10° N 01:51:23 25° NE 01:54:55 10° ESE
Cosmos 1656 3.7 01:48:20 28° SSW 01:51:28 80° ESE 01:57:08 10° NNE
STARLINK-1221 2.7 01:48:30 10° WNW 01:51:37 82° SW 01:54:43 10° SE
STARLINK-1222 2.7 01:49:25 10° WNW 01:52:30 80° SW 01:55:37 10° SE
STARLINK-1214 2.6 01:50:19 10° WNW 01:53:25 79° SW 01:56:31 10° SE
CZ-4C R/B 2.9 01:50:43 22° S 01:53:28 41° ESE 01:58:47 10° NE
STARLINK-1154 4.4 01:49:53 10° NW 01:53:58 55° NNE 01:58:02 10° ESE
Cosmos 2084 3.9 01:52:18 29° WSW 01:54:22 56° NW 01:58:47 10° NNE
Cosmos 468 Rocket 4.0 01:52:22 27° SSW 01:55:11 79° ESE 02:00:20 10° NNE
SJ 16-02 1.3 01:51:01 10° NNW 01:55:29 89° ENE 01:59:17 14° SSE
Cosmos 1953 Rocket 4.2 01:54:38 18° SSE 01:57:44 53° E 02:02:05 10° NNE
STARLINK-1197 4.2 01:54:51 10° NW 01:58:57 58° NNE 02:03:03 10° ESE
COSMOS 2455 4.4 01:54:47 11° W 01:59:24 26° NW 02:04:24 10° NNE
Cosmos 2369 4.3 01:55:55 18° S 01:59:49 49° ESE 02:05:15 10° NE
Cosmos 1937 Rocket 4.0 01:55:01 10° NNW 02:00:13 62° ENE 02:05:25 10° SSE
Meteor 2-10 Rocket 3.5 01:57:10 10° NNW 02:02:28 66° W 02:06:01 20° S
STARLINK-1198 4.1 01:59:48 10° NW 02:03:55 63° NNE 02:08:01 10° ESE
Cosmos 1709 Rocket 4.0 02:01:48 24° SSW 02:05:35 63° W 02:11:40 10° N
STARLINK-1199 4.0 02:04:48 10° NW 02:08:57 67° NNE 02:13:04 10° ESE
STARLINK-1210 3.9 02:09:46 10° NW 02:13:55 72° NNE 02:18:02 10° ESE
STARLINK-1320 2.9 02:14:52 31° WSW 02:16:10 75° NNW 02:19:17 10° NE
STARLINK-1322 2.9 02:15:11 31° WSW 02:16:30 74° NNW 02:19:38 10° NE
STARLINK-1324 2.9 02:15:32 31° WSW 02:16:52 74° NNW 02:19:59 10° NE
STARLINK-1294 2.9 02:15:47 30° WSW 02:17:08 74° NW 02:20:17 10° NE
Cosmos 2219 3.5 02:12:07 10° NW 02:17:28 44° WSW 02:22:14 13° S
STARLINK-1261 2.9 02:16:09 30° WSW 02:17:31 73° NNW 02:20:38 10° NE
STARLINK-1325 2.9 02:16:30 30° WSW 02:17:53 72° NNW 02:21:00 10° NE
STARLINK-1333 2.9 02:16:48 30° WSW 02:18:11 72° NNW 02:21:18 10° NE
STARLINK-1334 2.9 02:17:07 29° WSW 02:18:32 71° NNW 02:21:39 10° NE
Cosmos 1980 Rocket 3.2 02:13:41 10° S 02:18:45 40° ESE 02:23:58 10° NE
STARLINK-1326 2.9 02:17:28 29° WSW 02:18:52 71° NNW 02:21:59 10° NE
STARLINK-1219 3.7 02:14:44 10° NW 02:18:54 78° NNE 02:23:03 10° ESE
STARLINK-1323 3.0 02:17:47 29° WSW 02:19:13 70° NNW 02:22:20 10° NE
STARLINK-1338 3.1 02:17:39 27° WSW 02:19:25 81° NNW 02:22:54 10° NE
STARLINK-1349 3.0 02:18:06 28° WSW 02:19:32 70° NNW 02:22:39 10° NE
STARLINK-1336 3.0 02:18:28 28° WSW 02:19:55 69° NNW 02:23:02 10° NE
STARLINK-1331 3.0 02:18:45 28° WSW 02:20:13 69° NNW 02:23:19 10° NE
STARLINK-1344 3.0 02:19:05 28° WSW 02:20:33 68° NNW 02:23:41 10° NE
Cosmos 858 Rocket 4.5 02:15:36 10° NNW 02:20:54 89° WSW 02:26:12 10° SSE
STARLINK-1343 3.0 02:19:25 27° WSW 02:20:54 68° NNW 02:24:00 10° NE
STARLINK-1346 3.0 02:19:43 27° WSW 02:21:15 68° NNW 02:24:24 10° NE
STARLINK-1328 3.0 02:20:05 27° WSW 02:21:36 67° NNW 02:24:43 10° NE
Cosmos 1328 3.9 02:19:18 24° SSW 02:21:36 63° W 02:25:34 10° N
STARLINK-1354 3.0 02:20:22 27° WSW 02:21:54 67° NNW 02:25:01 10° NE
STARLINK-1347 3.0 02:20:44 26° WSW 02:22:17 66° NNW 02:25:23 10° NE
STARLINK-1357 3.0 02:21:01 26° WSW 02:22:34 66° NNW 02:25:42 10° NE
STARLINK-1335 3.1 02:21:22 26° WSW 02:22:56 65° NNW 02:26:02 10° NE
STARLINK-1327 3.1 02:21:41 26° WSW 02:23:16 65° NNW 02:26:21 10° NE
CRYOSAT 2 4.3 02:18:22 10° N 02:23:17 76° W 02:27:17 15° SSW
STARLINK-1371 3.2 02:21:31 24° WSW 02:23:27 75° NNW 02:26:57 10° NE
STARLINK-1340 3.1 02:22:01 25° WSW 02:23:37 64° NNW 02:26:44 10° NE
ERS-2 2.5 02:20:15 10° SSE 02:23:52 65° ENE 02:27:31 10° N
STARLINK-1211 3.6 02:19:42 10° NW 02:23:52 83° NE 02:28:01 10° ESE
STARLINK-1356 3.1 02:22:21 25° WSW 02:23:57 64° NNW 02:27:04 10° NE
STARLINK-1345 3.1 02:22:41 25° WSW 02:24:18 63° NNW 02:27:24 10° NE
STARLINK-1355 3.1 02:22:59 25° WSW 02:24:38 63° NNW 02:27:44 10° NE
STARLINK-1321 3.1 02:23:18 24° WSW 02:24:57 63° NNW 02:28:03 10° NE
STARLINK-1358 3.1 02:23:39 24° WSW 02:25:19 62° NNW 02:28:26 10° NE
STARLINK-1341 3.2 02:23:29 23° WSW 02:25:30 73° NNW 02:29:00 10° NE
STARLINK-1332 3.1 02:23:57 24° WSW 02:25:38 62° NNW 02:28:44 10° NE
STARLINK-1348 3.1 02:24:18 24° WSW 02:26:00 61° NNW 02:29:05 10° NE
STARLINK-1330 3.2 02:24:36 23° WSW 02:26:19 61° NNW 02:29:24 10° NE
STARLINK-1363 3.2 02:24:56 23° WSW 02:26:39 61° NNW 02:29:45 10° NE
STARLINK-1337 3.2 02:25:15 23° WSW 02:26:59 60° NNW 02:30:05 10° NE
STARLINK-1342 3.2 02:25:35 23° WSW 02:27:20 60° NNW 02:30:25 10° NE
STARLINK-1374 3.3 02:25:26 22° WSW 02:27:33 70° NNW 02:31:04 10° NE
STARLINK-1364 3.2 02:25:55 23° WSW 02:27:40 59° NNW 02:30:46 10° NE
STARLINK-1376 3.2 02:26:15 22° WSW 02:28:01 59° NNW 02:31:07 10° NE
STARLINK-1360 3.2 02:26:30 22° WSW 02:28:17 59° NNW 02:31:24 10° NE
STARLINK-1361 3.2 02:26:56 22° WSW 02:28:43 58° NNW 02:31:49 10° NE
STARLINK-1245 3.6 02:24:42 10° NW 02:28:52 89° ENE 02:33:01 10° SE
IRS-1C 4.1 02:23:35 10° NNE 02:28:56 79° WNW 02:33:25 15° SSW
STARLINK-1367 3.2 02:27:10 22° WSW 02:29:00 58° NNW 02:32:08 10° NE
CSL-04 DEB 4.5 02:24:52 10° SSE 02:29:05 84° WSW 02:33:26 10° NNW
STARLINK-1366 3.2 02:27:33 21° WSW 02:29:22 57° NNW 02:32:28 10° NE
STARLINK-1339 3.3 02:27:27 21° WSW 02:29:38 68° NNW 02:33:08 10° NE
SL-4 R/B 3.7 02:26:01 10° W 02:30:29 37° NNW 02:34:49 10° ENE
STARLINK-1377 3.4 02:29:28 20° WSW 02:31:44 65° NNW 02:35:14 10° NE
Cosmos 2297 Rocket 2.6 02:27:43 10° NW 02:33:01 41° WSW 02:38:15 10° S
STARLINK-1353 3.4 02:31:17 19° WSW 02:33:36 63° NNW 02:37:04 10° NE
STARLINK-1233 3.5 02:29:40 10° WNW 02:33:50 84° SSW 02:37:58 10° SE
STARLINK-1375 3.5 02:33:04 18° WSW 02:35:28 61° NNW 02:38:55 10° NE
Cosmos 2082 3.6 02:31:10 10° NNW 02:36:51 76° WSW 02:42:27 10° SSE
Cosmos 540 Rocket 3.6 02:32:22 13° SSW 02:36:53 78° ESE 02:42:02 10° NNE
ATLAS CENTAUR R/B 4.0 02:36:04 10° NW 02:37:26 11° NNW 02:38:46 10° NNW
STARLINK-1350 3.5 02:35:22 17° WSW 02:37:52 58° NNW 02:41:19 10° NE
Cosmos 990 Rocket 4.4 02:33:50 10° NNW 02:38:49 43° WSW 02:43:44 10° S
STARLINK-1204 3.5 02:34:40 10° WNW 02:38:49 78° SW 02:42:57 10° SE
STARLINK-1352 3.6 02:37:39 16° WSW 02:40:18 56° NNW 02:43:47 10° NE
Landsat 5 4.3 02:36:21 10° SSE 02:40:45 58° ENE 02:45:13 10° N
Cosmos 1825 Rocket 4.4 02:38:21 17° SW 02:41:04 35° WNW 02:45:04 10° N
Cosmos 2278 3.9 02:36:08 12° SSW 02:41:18 74° ESE 02:46:58 10° NNE
STARLINK-1368 3.7 02:39:45 15° WSW 02:42:28 54° NNW 02:45:57 10° NE
Cosmos 1455 3.6 02:39:47 10° NW 02:42:39 21° W 02:44:15 16° WSW
CZ-2D R/B 3.6 02:39:09 10° NNE 02:43:17 77° ESE 02:47:28 10° S
Meteor 1-11 4.2 02:38:11 12° SSW 02:43:29 76° W 02:49:07 10° N
Meteor 1-28 Rocket 3.1 02:39:55 10° S 02:43:42 76° W 02:47:29 10° NNW
STARLINK-1238 3.5 02:39:37 10° WNW 02:43:46 72° SW 02:47:53 10° SE
SL-16 R/B 3.9 02:41:06 14° SW 02:44:06 20° W 02:48:30 10° NW
STARLINK-1369 3.7 02:41:37 14° WSW 02:44:23 52° NNW 02:47:50 10° NE
USA 234 4.0 02:38:34 10° ENE 02:44:49 45° SE 02:51:00 10° SSW
Cosmos 2074 Rocket 4.0 02:40:35 10° SSW 02:46:51 76° W 02:53:12 10° N
STARLINK-1372 3.8 02:43:57 14° WSW 02:46:52 51° NNW 02:50:20 10° NE
ATLAS CENTAUR R/B 2.9 02:43:45 10° WNW 02:47:13 42° SW 02:55:06 10° SSE
Cosmos 2263 Rocket 4.0 02:43:33 10° N 02:48:42 35° NE 02:53:47 10° ESE
STARLINK-1201 3.5 02:44:38 10° WNW 02:48:45 66° SW 02:52:51 10° SE
STARLINK-1378 3.9 02:46:05 13° WSW 02:49:07 49° NNW 02:52:34 10° NE
Cosmos 841 Rocket 3.5 02:44:27 13° SSW 02:49:11 78° WNW 02:54:27 10° NNE
STARLINK-1329 3.9 02:46:35 13° WSW 02:49:38 49° NNW 02:53:05 10° NE
STARLINK-1365 3.9 02:47:17 12° W 02:50:22 47° NNW 02:53:48 10° NE
Cosmos 372 Rocket 4.2 02:45:25 10° NNW 02:50:34 75° ENE 02:55:42 10° SSE
GP-B 4.5 02:47:13 10° NNW 02:50:45 23° WNW 02:53:36 13° SW
STARLINK-1379 3.9 02:48:13 12° WSW 02:51:20 48° NNW 02:54:47 10° NE
STARLINK-1362 3.9 02:48:47 12° WSW 02:51:55 47° NNW 02:55:22 10° NE
Cosmos 1892 4.5 02:49:35 10° SSE 02:53:00 31° E 02:56:25 10° NNE
STARLINK-1206 3.6 02:49:37 10° WNW 02:53:43 61° SW 02:57:47 10° SE
COBE Rocket 4.0 02:48:52 10° S 02:53:43 63° W 02:58:44 10° NNW
STARLINK-1373 4.0 02:50:59 11° W 02:54:14 46° NNW 02:57:40 10° NE
Cosmos-2242 4.1 02:50:42 10° NNW 02:54:16 26° W 02:57:21 12° SW
Cosmos 1869 4.0 02:51:11 10° N 02:55:01 54° ENE 02:58:48 10° SSE
Cosmos 1400 Rocket 3.0 02:51:34 10° NNW 02:55:37 56° W 02:59:39 10° S
STARLINK-1390 4.0 02:52:59 11° W 02:56:17 44° NNW 02:59:43 10° NE
Cosmos 2221 2.9 02:52:06 10° N 02:56:26 68° E 03:00:44 10° SSE
ATLAS 3B R/B 4.3 02:55:15 10° W 02:57:41 12° WSW 02:59:50 10° WSW
Cosmos 2184 Rocket 4.1 02:52:17 10° SSW 02:58:26 65° W 03:04:34 10° N
STARLINK-1205 3.7 02:54:37 10° WNW 02:58:40 55° SW 03:02:43 10° SE
SL-08 R/B 3.9 02:54:55 10° SSW 02:59:17 37° W 03:03:37 10° NNW
CZ-4C R/B 3.0 02:56:06 10° S 02:59:39 78° WSW 03:03:18 10° NNW
STARLINK-1218 3.8 02:59:36 10° WNW 03:03:37 51° SW 03:07:38 10° SE
CZ-2D R/B 4.1 03:04:42 10° NNW 03:07:16 14° WNW 03:09:48 10° W
Cosmos 2227 Rocket 3.2 03:03:49 10° NW 03:08:21 25° WSW 03:12:52 10° SSW
STARLINK-1254 3.9 03:04:36 10° WNW 03:08:36 46° SW 03:12:33 10° SSE
ADEOS II 3.2 03:05:41 10° N 03:10:11 30° WNW 03:14:41 10° SW
Cosmos 1697 Rocket 3.3 03:04:56 10° SW 03:10:18 46° WNW 03:15:46 10° NNE
Cosmos 2150 Rocket 4.0 03:07:23 10° NNW 03:12:36 88° ENE 03:17:44 10° SSE
STARLINK-1231 4.0 03:09:38 10° WNW 03:13:34 42° SW 03:17:29 10° SSE
Cosmos 1315 Rocket 2.8 03:11:45 10° N 03:15:41 86° E 03:19:35 10° S
STARLINK-1246 4.4 03:11:49 10° NW 03:15:55 57° NNE 03:20:00 10° ESE
SL-16 R/B 3.7 03:11:08 10° SSE 03:16:11 35° ESE 03:21:16 10° NE
Resurs 1-4 Rocket 4.2 03:15:03 10° NW 03:16:38 11° NW 03:18:13 10° WNW
CZ-2C R/B 2.7 03:13:31 10° N 03:17:12 66° WNW 03:20:53 10° SSW
MSX 4.0 03:12:26 10° NNE 03:18:14 78° ESE 03:23:58 10° S
STARLINK-1232 4.1 03:14:39 10° WNW 03:18:32 39° SW 03:22:23 10° SSE
SAR-Lupe-4 3.7 03:16:13 10° SSE 03:19:48 81° ENE 03:23:25 10° NNW
H-2A R/B 2.6 03:16:05 10° S 03:20:08 40° W 03:24:17 10° NNW
STARLINK-1224 4.3 03:16:47 10° NW 03:20:55 61° NNE 03:25:00 10° ESE
ARIANE 5 R/B 3.3 03:17:14 10° N 03:21:49 35° WNW 03:26:20 10° SW
deb Chang Zheng 4 3.9 03:18:56 10° NNE 03:23:16 67° ESE 03:27:30 10° S
STARLINK-1208 4.2 03:19:39 10° WNW 03:23:27 35° SW 03:27:14 10° SSE
BREEZE-M R/B 3.7 03:21:08 10° WNW 03:24:00 28° N 03:26:14 10° NE
STARLINK-1225 4.1 03:21:46 10° NW 03:25:55 65° NNE 03:30:01 10° ESE
